Time,TemperatureF,DewpointF,PressureIn,WindDirection,WindDirectionDegrees,WindSpeedMPH,WindSpeedGustMPH,Humidity,HourlyPrecipIn,Conditions,Clouds,dailyrainin,SoftwareType,DateUTC
2013-07-16 00:04:00,53.8,50.0,20.49,West,277,0.0,1.0,88,0.00,,,0.00,weatherlink.com 1.10,2013-07-16 06:04:00,
2013-07-16 00:19:00,53.4,50.0,20.49,West,277,0.0,2.0,89,0.00,,,0.00,weatherlink.com 1.10,2013-07-16 06:19:00,
2013-07-16 00:34:00,52.8,50.0,20.49,West,277,0.0,3.0,90,0.00,,,0.00,weatherlink.com 1.10,2013-07-16 06:34:00,
2013-07-16 00:49:00,53.0,51.0,20.49,West,277,0.0,4.0,91,0.00,,,0.00,weatherlink.com 1.10,2013-07-16 06:49:00,
2013-07-16 01:19:00,52.2,49.0,20.49,West,277,1.0,3.0,87,0.00,,,0.00,weatherlink.com 1.10,2013-07-16 07:19:00,
2013-07-16 01:34:00,51.7,48.0,20.50,West,277,0.0,3.0,87,0.00,,,0.00,weatherlink.com 1.10,2013-07-16 07:34:00,
2013-07-16 01:49:00,51.3,48.0,20.49,West,276,2.0,5.0,87,0.00,,,0.00,weatherlink.com 1.10,2013-07-16 07:49:00,
2013-07-16 02:04:00,51.3,47.0,20.49,West,273,3.0,5.0,86,0.00,,,0.00,weatherlink.com 1.10,2013-07-16 08:04:00,
2013-07-16 02:19:00,51.5,48.0,20.50,West,269,3.0,4.0,88,0.00,,,0.00,weatherlink.com 1.10,2013-07-16 08:19:00,
2013-07-16 02:34:00,51.6,49.0,20.50,West,269,0.0,2.0,89,0.00,,,0.00,weatherlink.com 1.10,2013-07-16 08:34:00,
2013-07-16 02:49:00,51.4,48.0,20.49,West,269,0.0,2.0,89,0.00,,,0.00,weatherlink.com 1.10,2013-07-16 08:49:00,
2013-07-16 03:04:00,51.4,47.0,20.49,West,270,0.0,1.0,86,0.00,,,0.00,weatherlink.com 1.10,2013-07-16 09:04:00,
2013-07-16 03:19:00,51.3,48.0,20.48,West,270,0.0,2.0,87,0.00,,,0.00,weatherlink.com 1.10,2013-07-16 09:19:00,
2013-07-16 03:34:00,51.0,47.0,20.49,West,270,0.0,1.0,85,0.00,,,0.00,weatherlink.com 1.10,2013-07-16 09:34:00,
2013-07-16 03:49:00,50.7,47.0,20.50,West,270,0.0,2.0,86,0.00,,,0.00,weatherlink.com 1.10,2013-07-16 09:49:00,
2013-07-16 04:04:00,51.0,47.0,20.49,West,270,0.0,3.0,86,0.00,,,0.00,weatherlink.com 1.10,2013-07-16 10:04:00,
2013-07-16 04:19:00,51.2,47.0,20.49,West,269,2.0,3.0,86,0.00,,,0.00,weatherlink.com 1.10,2013-07-16 10:19:00,
2013-07-16 04:35:00,51.4,48.0,20.49,West,269,0.0,0.0,88,0.00,,,0.00,weatherlink.com 1.10,2013-07-16 10:35:00,
2013-07-16 04:50:00,51.4,47.0,20.49,West,269,2.0,3.0,86,0.00,,,0.00,weatherlink.com 1.10,2013-07-16 10:50:00,
2013-07-16 05:05:00,51.3,48.0,20.50,West,270,0.0,0.0,87,0.00,,,0.00,weatherlink.com 1.10,2013-07-16 11:05:00,
2013-07-16 05:20:00,51.0,48.0,20.50,West,269,0.0,0.0,89,0.00,,,0.00,weatherlink.com 1.10,2013-07-16 11:20:00,
2013-07-16 05:35:00,51.1,48.0,20.50,West,270,1.0,3.0,88,0.00,,,0.00,weatherlink.com 1.10,2013-07-16 11:35:00,
2013-07-16 05:50:00,51.4,48.0,20.50,West,270,0.0,0.0,88,0.00,,,0.00,weatherlink.com 1.10,2013-07-16 11:50:00,
2013-07-16 06:05:00,51.1,47.0,20.50,West,270,0.0,1.0,87,0.00,,,0.00,weatherlink.com 1.10,2013-07-16 12:05:00,
2013-07-16 06:20:00,50.5,47.0,20.51,West,270,0.0,0.0,87,0.00,,,0.00,weatherlink.com 1.10,2013-07-16 12:20:00,
2013-07-16 06:35:00,50.4,47.0,20.52,West,270,0.0,1.0,89,0.00,,,0.00,weatherlink.com 1.10,2013-07-16 12:35:00,
2013-07-16 06:50:00,50.7,48.0,20.52,West,270,0.0,1.0,89,0.00,,,0.00,weatherlink.com 1.10,2013-07-16 12:50:00,
2013-07-16 07:05:00,51.3,48.0,20.52,West,269,0.0,0.0,89,0.00,,,0.00,weatherlink.com 1.10,2013-07-16 13:05:00,
2013-07-16 07:20:00,52.5,49.0,20.53,West,269,0.0,0.0,87,0.00,,,0.00,weatherlink.com 1.10,2013-07-16 13:20:00,
2013-07-16 07:35:00,53.7,49.0,20.53,West,269,0.0,1.0,83,0.00,,,0.00,weatherlink.com 1.10,2013-07-16 13:35:00,
2013-07-16 07:50:00,54.3,49.0,20.54,West,269,0.0,1.0,82,0.00,,,0.00,weatherlink.com 1.10,2013-07-16 13:50:00,
2013-07-16 08:05:00,55.4,49.0,20.54,West,270,0.0,2.0,78,0.00,,,0.00,weatherlink.com 1.10,2013-07-16 14:05:00,
2013-07-16 08:20:00,57.3,49.0,20.54,West,270,5.0,5.0,75,0.00,,,0.00,weatherlink.com 1.10,2013-07-16 14:20:00,
2013-07-16 08:35:00,59.6,50.0,20.54,West,271,0.0,6.0,70,0.00,,,0.00,weatherlink.com 1.10,2013-07-16 14:35:00,
2013-07-16 08:50:00,59.0,50.0,20.54,West,271,0.0,4.0,71,0.00,,,0.00,weatherlink.com 1.10,2013-07-16 14:50:00,
2013-07-16 09:05:00,59.8,50.0,20.54,West,276,0.0,7.0,69,0.00,,,0.00,weatherlink.com 1.10,2013-07-16 15:05:00,
2013-07-16 09:20:00,60.3,50.0,20.54,West,279,3.0,6.0,68,0.00,,,0.00,weatherlink.com 1.10,2013-07-16 15:20:00,
2013-07-16 09:35:00,60.4,48.0,20.53,West,281,0.0,6.0,65,0.00,,,0.00,weatherlink.com 1.10,2013-07-16 15:35:00,
2013-07-16 09:50:00,60.2,49.0,20.53,West,280,1.0,3.0,66,0.00,,,0.00,weatherlink.com 1.10,2013-07-16 15:50:00,
2013-07-16 10:05:00,61.7,49.0,20.53,WNW,296,1.0,6.0,64,0.00,,,0.00,weatherlink.com 1.10,2013-07-16 16:05:00,
2013-07-16 10:20:00,61.4,49.0,20.53,WNW,300,5.0,6.0,65,0.00,,,0.00,weatherlink.com 1.10,2013-07-16 16:20:00,
2013-07-16 10:35:00,61.2,49.0,20.53,NW,308,0.0,7.0,64,0.00,,,0.00,weatherlink.com 1.10,2013-07-16 16:35:00,
2013-07-16 10:50:00,61.2,49.0,20.53,NW,309,1.0,5.0,64,0.00,,,0.00,weatherlink.com 1.10,2013-07-16 16:50:00,
2013-07-16 11:05:00,62.4,49.0,20.54,NW,311,3.0,5.0,62,0.00,,,0.00,weatherlink.com 1.10,2013-07-16 17:05:00,
2013-07-16 11:20:00,62.5,49.0,20.53,NW,313,0.0,1.0,61,0.00,,,0.00,weatherlink.com 1.10,2013-07-16 17:20:00,
2013-07-16 11:35:00,62.7,49.0,20.53,NW,313,0.0,5.0,62,0.00,,,0.00,weatherlink.com 1.10,2013-07-16 17:35:00,
2013-07-16 11:50:00,63.6,48.0,20.53,NW,315,0.0,7.0,58,0.00,,,0.00,weatherlink.com 1.10,2013-07-16 17:50:00,
2013-07-16 12:06:00,64.6,49.0,20.53,NW,315,0.0,5.0,57,0.00,,,0.00,weatherlink.com 1.10,2013-07-16 18:06:00,
2013-07-16 12:21:00,65.4,50.0,20.51,NW,315,0.0,4.0,57,0.00,,,0.00,weatherlink.com 1.10,2013-07-16 18:21:00,
2013-07-16 12:36:00,67.3,49.0,20.51,NW,309,2.0,6.0,52,0.00,,,0.00,weatherlink.com 1.10,2013-07-16 18:36:00,
2013-07-16 12:51:00,68.4,49.0,20.50,NW,317,4.0,8.0,50,0.00,,,0.00,weatherlink.com 1.10,2013-07-16 18:51:00,
2013-07-16 13:06:00,69.7,47.0,20.50,NW,319,0.0,6.0,44,0.00,,,0.00,weatherlink.com 1.10,2013-07-16 19:06:00,
2013-07-16 13:21:00,70.3,48.0,20.50,North,355,0.0,7.0,46,0.00,,,0.00,weatherlink.com 1.10,2013-07-16 19:21:00,
2013-07-16 13:36:00,70.3,47.0,20.50,NNW,343,1.0,7.0,43,0.00,,,0.00,weatherlink.com 1.10,2013-07-16 19:36:00,
2013-07-16 13:52:00,70.2,47.0,20.49,NNW,344,3.0,8.0,44,0.00,,,0.00,weatherlink.com 1.10,2013-07-16 19:52:00,
2013-07-16 14:07:00,70.5,47.0,20.49,NNW,345,5.0,7.0,43,0.00,,,0.00,weatherlink.com 1.10,2013-07-16 20:07:00,
2013-07-16 14:22:00,69.9,46.0,20.49,WNW,292,0.0,9.0,43,0.00,,,0.00,weatherlink.com 1.10,2013-07-16 20:22:00,
2013-07-16 14:37:00,70.8,46.0,20.48,NW,306,2.0,7.0,42,0.00,,,0.00,weatherlink.com 1.10,2013-07-16 20:37:00,
2013-07-16 14:52:00,71.1,46.0,20.47,WNW,293,0.0,8.0,41,0.00,,,0.00,weatherlink.com 1.10,2013-07-16 20:52:00,
2013-07-16 15:07:00,70.4,46.0,20.47,WNW,293,0.0,6.0,42,0.00,,,0.00,weatherlink.com 1.10,2013-07-16 21:07:00,
2013-07-16 15:22:00,71.5,46.0,20.47,WNW,293,0.0,3.0,40,0.00,,,0.00,weatherlink.com 1.10,2013-07-16 21:22:00,
2013-07-16 15:37:00,71.0,46.0,20.47,WSW,238,0.0,6.0,41,0.00,,,0.00,weatherlink.com 1.10,2013-07-16 21:37:00,
2013-07-16 15:52:00,70.3,45.0,20.48,East,97,2.0,8.0,40,0.00,,,0.00,weatherlink.com 1.10,2013-07-16 21:52:00,
2013-07-16 16:07:00,69.9,44.0,20.48,East,97,0.0,6.0,40,0.00,,,0.00,weatherlink.com 1.10,2013-07-16 22:07:00,
2013-07-16 16:22:00,69.7,45.0,20.47,ESE,107,7.0,12.0,42,0.00,,,0.00,weatherlink.com 1.10,2013-07-16 22:22:00,
2013-07-16 16:37:00,69.2,46.0,20.48,East,101,3.0,13.0,44,0.00,,,0.00,weatherlink.com 1.10,2013-07-16 22:37:00,
2013-07-16 16:52:00,71.0,46.0,20.47,ESE,122,4.0,13.0,41,0.00,,,0.00,weatherlink.com 1.10,2013-07-16 22:52:00,
2013-07-16 17:07:00,73.9,47.0,20.47,East,91,5.0,15.0,38,0.00,,,0.00,weatherlink.com 1.10,2013-07-16 23:07:00,
2013-07-16 17:22:00,71.8,46.0,20.47,ESE,111,4.0,13.0,40,0.00,,,0.00,weatherlink.com 1.10,2013-07-16 23:22:00,
2013-07-16 17:37:00,69.3,45.0,20.47,East,82,7.0,14.0,42,0.00,,,0.00,weatherlink.com 1.10,2013-07-16 23:37:00,
2013-07-16 17:52:00,68.3,45.0,20.47,East,94,10.0,13.0,43,0.00,,,0.00,weatherlink.com 1.10,2013-07-16 23:52:00,
2013-07-16 18:08:00,68.8,46.0,20.47,ESE,102,4.0,14.0,45,0.00,,,0.00,weatherlink.com 1.10,2013-07-17 00:08:00,
2013-07-16 18:23:00,69.0,46.0,20.48,East,84,6.0,10.0,44,0.00,,,0.00,weatherlink.com 1.10,2013-07-17 00:23:00,
2013-07-16 18:38:00,68.2,45.0,20.48,ESE,118,5.0,15.0,44,0.00,,,0.00,weatherlink.com 1.10,2013-07-17 00:38:00,
2013-07-16 18:53:00,67.3,45.0,20.48,East,91,6.0,15.0,45,0.00,,,0.00,weatherlink.com 1.10,2013-07-17 00:53:00,
2013-07-16 19:08:00,65.9,45.0,20.48,ESE,106,3.0,16.0,47,0.00,,,0.00,weatherlink.com 1.10,2013-07-17 01:08:00,
2013-07-16 19:23:00,65.2,45.0,20.49,ESE,120,3.0,16.0,49,0.00,,,0.00,weatherlink.com 1.10,2013-07-17 01:23:00,
2013-07-16 19:38:00,64.8,46.0,20.49,ESE,109,7.0,19.0,50,0.00,,,0.00,weatherlink.com 1.10,2013-07-17 01:38:00,
2013-07-16 19:53:00,64.5,45.0,20.50,SE,130,3.0,20.0,50,0.00,,,0.00,weatherlink.com 1.10,2013-07-17 01:53:00,
2013-07-16 20:08:00,64.2,46.0,20.50,ESE,119,10.0,14.0,51,0.00,,,0.00,weatherlink.com 1.10,2013-07-17 02:08:00,
2013-07-16 20:23:00,64.2,45.0,20.51,SE,136,16.0,16.0,50,0.00,,,0.00,weatherlink.com 1.10,2013-07-17 02:23:00,
2013-07-16 20:38:00,63.9,45.0,20.52,East,98,3.0,14.0,51,0.00,,,0.00,weatherlink.com 1.10,2013-07-17 02:38:00,
2013-07-16 20:53:00,63.4,45.0,20.52,ENE,61,0.0,9.0,52,0.00,,,0.00,weatherlink.com 1.10,2013-07-17 02:53:00,
2013-07-16 21:08:00,63.1,45.0,20.53,ESE,121,4.0,7.0,53,0.00,,,0.00,weatherlink.com 1.10,2013-07-17 03:08:00,
2013-07-16 21:23:00,62.2,46.0,20.55,South,190,3.0,8.0,55,0.00,,,0.00,weatherlink.com 1.10,2013-07-17 03:23:00,
2013-07-16 21:38:00,61.9,46.0,20.56,South,191,0.0,2.0,57,0.00,,,0.00,weatherlink.com 1.10,2013-07-17 03:38:00,
2013-07-16 21:53:00,61.3,46.0,20.57,South,191,0.0,3.0,57,0.00,,,0.00,weatherlink.com 1.10,2013-07-17 03:53:00,
2013-07-16 22:08:00,60.4,45.0,20.57,South,191,0.0,5.0,58,0.00,,,0.00,weatherlink.com 1.10,2013-07-17 04:08:00,
2013-07-16 22:23:00,59.8,45.0,20.58,South,191,0.0,3.0,59,0.00,,,0.00,weatherlink.com 1.10,2013-07-17 04:23:00,
2013-07-16 22:38:00,59.9,45.0,20.58,South,191,2.0,2.0,59,0.00,,,0.00,weatherlink.com 1.10,2013-07-17 04:38:00,
2013-07-16 22:53:00,60.6,46.0,20.58,SSW,200,0.0,6.0,58,0.00,,,0.00,weatherlink.com 1.10,2013-07-17 04:53:00,
2013-07-16 23:08:00,60.8,46.0,20.58,SSW,205,3.0,7.0,58,0.00,,,0.00,weatherlink.com 1.10,2013-07-17 05:08:00,
2013-07-16 23:23:00,60.5,45.0,20.59,South,186,4.0,10.0,58,0.00,,,0.00,weatherlink.com 1.10,2013-07-17 05:23:00,
2013-07-16 23:38:00,60.0,45.0,20.60,South,180,2.0,8.0,59,0.00,,,0.00,weatherlink.com 1.10,2013-07-17 05:38:00,
2013-07-16 23:53:00,59.4,45.0,20.60,South,179,6.0,9.0,59,0.00,,,0.00,weatherlink.com 1.10,2013-07-17 05:53:00,